Budapest Ferihegy, Hungary

11:09 AM CET on January 19, 2018 (GMT +0100)
Ferihegy

Weather History for LHBP - February, 2013

Change the Weather History Date:

Tuesday, February 12, 2013

  Actual Average Record
Temperature  
Mean Temperature 30 °F -  
Max Temperature 37 °F 44 °F 60 °F (1998)
Min Temperature 24 °F 26 °F 5 °F (2012)
Degree Days  
Heating Degree Days 34    
Moisture  
Dew Point 26 °F    
Average Humidity 81    
Maximum Humidity 100    
Minimum Humidity 70    
Precipitation  
Precipitation 0.00 in - - ()
Sea Level Pressure  
Sea Level Pressure 29.83 in    
Wind  
Wind Speed 12 mph ()    
Max Wind Speed 17 mph    
Max Gust Speed -    
Visibility 4.9 miles    
Events Rain , Snow    
Averages and records for this station are not official NWS values.
T = Trace of Precipitation, MM = Missing Value Source: Averaged Metar Reports

Daily Weather History Graph

Daily Weather History Graph

Search for Another Location

Airport or City:

Trip Planner

Search our weather history database for the weather conditions in past years. The results will help you decide how hot, cold, wet, or windy it might be!

Date:

Astronomy

Feb. 12, 2013 Rise Set
Actual Time 6:53 AM CET 5:01 PM CET
Civil Twilight 6:21 AM CET 5:33 PM CET
Nautical Twilight 5:45 AM CET 6:09 PM CET
Astronomical Twilight 5:09 AM CET 6:45 PM CET
Moon 7:27 AM CET (2/12) 7:59 PM CET (2/12)
Length of Visible Light 11h 12m
Length of Day
10h 08m
Waxing Crescent, 6% of the Moon is Illuminated
Feb 12
Waxing Crescent
Feb 17
First Quarter
Feb 25
Full
Mar 4
Last Quarter
Mar 11
New

Hourly Weather History & Observations

Time (CET) Temp. Windchill Dew Point Humidity Pressure Visibility Wind Dir Wind Speed Gust Speed Precip Events Conditions
12:00 AM 24.8 °F 14.6 °F 21.2 °F 86% 29.89 in 3.1 mi ENE 10.4 mph - N/A   Mostly Cloudy
12:30 AM 24.8 °F 13.4 °F 21.2 °F 86% 29.89 in 3.1 mi East 12.7 mph - N/A   Mostly Cloudy
1:00 AM 24.8 °F 14.6 °F 21.2 °F 86% 29.89 in 3.7 mi ENE 10.4 mph - N/A   Mostly Cloudy
1:30 AM 24.8 °F 15.3 °F 21.2 °F 86% 29.89 in 3.7 mi ENE 9.2 mph - N/A   Unknown
2:00 AM 26.6 °F 16.8 °F 23.0 °F 86% 29.89 in - ENE 10.4 mph - N/A   Clear
2:30 AM 26.6 °F 15.2 °F 23.0 °F 86% 29.86 in - ENE 13.8 mph - N/A   Clear
3:00 AM 26.6 °F 14.7 °F 23.0 °F 86% 29.86 in 6.2 mi ENE 15.0 mph - N/A   Mostly Cloudy
3:30 AM 26.6 °F 14.3 °F 23.0 °F 86% 29.86 in 6.2 mi ENE 16.1 mph - N/A   Mostly Cloudy
4:00 AM 26.6 °F 14.3 °F 23.0 °F 86% 29.86 in 6.2 mi East 16.1 mph - N/A   Mostly Cloudy
4:30 AM 28.4 °F 17.0 °F 23.0 °F 80% 29.86 in 6.2 mi ENE 15.0 mph - N/A   Mostly Cloudy
5:00 AM 28.4 °F 17.0 °F 23.0 °F 80% 29.83 in 6.2 mi ENE 15.0 mph - N/A   Mostly Cloudy
5:30 AM 28.4 °F 17.5 °F 23.0 °F 80% 29.83 in 6.2 mi East 13.8 mph - N/A   Overcast
6:00 AM 28.4 °F 17.0 °F 23.0 °F 80% 29.83 in 5.0 mi East 15.0 mph - N/A   Overcast
6:30 AM 28.4 °F 17.5 °F 23.0 °F 80% 29.83 in 5.0 mi East 13.8 mph - N/A   Overcast
7:00 AM 28.4 °F 17.5 °F 23.0 °F 80% 29.83 in 5.0 mi ENE 13.8 mph - N/A   Overcast
7:30 AM 28.4 °F 17.0 °F 23.0 °F 80% 29.80 in 5.0 mi ENE 15.0 mph - N/A   Mostly Cloudy
8:00 AM 28.4 °F 16.2 °F 23.0 °F 80% 29.80 in 5.0 mi ENE 17.3 mph - N/A   Overcast
8:30 AM 28.4 °F 16.2 °F 23.0 °F 80% 29.80 in 5.0 mi ENE 17.3 mph - N/A   Overcast
9:00 AM 30.2 °F 18.9 °F 23.0 °F 75% 29.83 in 5.0 mi East 16.1 mph - N/A   Overcast
9:30 AM 30.2 °F 18.9 °F 23.0 °F 75% 29.83 in 5.0 mi ENE 16.1 mph - N/A   Unknown
10:00 AM 30.2 °F 18.5 °F 24.8 °F 80% 29.83 in 3.7 mi ENE 17.3 mph - N/A Snow Light Snow
10:30 AM 30.2 °F 18.9 °F 24.8 °F 80% 29.83 in 2.5 mi ENE 16.1 mph - N/A Snow Light Snow
11:00 AM 30.2 °F 18.5 °F 24.8 °F 80% 29.83 in 1.9 mi ENE 17.3 mph - N/A Snow Light Snow
11:30 AM 30.2 °F 19.8 °F 28.4 °F 93% 29.83 in 0.9 mi ENE 13.8 mph - N/A Snow Snow
12:00 PM 30.2 °F 19.8 °F 30.2 °F 100% 29.83 in 1.9 mi East 13.8 mph - N/A Rain , Snow Light Snow
12:30 PM 32.0 °F 22.5 °F 30.2 °F 93% 29.83 in 3.1 mi East 12.7 mph - N/A Snow Light Snow
1:00 PM 33.8 °F 24.3 °F 26.6 °F 75% 29.80 in 5.0 mi East 13.8 mph - N/A Snow Light Snow
1:30 PM 33.8 °F 24.8 °F 26.6 °F 75% 29.80 in 5.0 mi East 12.7 mph - N/A   Overcast
2:00 PM 33.8 °F 24.3 °F 26.6 °F 75% 29.80 in 5.0 mi East 13.8 mph - N/A   Overcast
2:30 PM 33.8 °F 24.3 °F 26.6 °F 75% 29.80 in 4.3 mi East 13.8 mph - N/A Snow Light Snow
3:00 PM 33.8 °F 24.8 °F 26.6 °F 75% 29.80 in 4.3 mi East 12.7 mph - N/A Snow Light Snow
3:30 PM 33.8 °F 25.3 °F 26.6 °F 75% 29.80 in 5.0 mi East 11.5 mph - N/A Snow Light Snow
4:00 PM 33.8 °F 25.3 °F 26.6 °F 75% 29.80 in 6.2 mi ENE 11.5 mph - N/A   Overcast
4:30 PM 33.8 °F 26.4 °F 26.6 °F 75% 29.80 in 6.2 mi East 9.2 mph - N/A   Overcast
5:00 PM 33.8 °F 25.8 °F 26.6 °F 75% 29.80 in 6.2 mi ENE 10.4 mph - N/A   Overcast
5:30 PM 33.8 °F 25.8 °F 26.6 °F 75% 29.83 in 6.2 mi ENE 10.4 mph - N/A Snow Light Snow
6:00 PM 35.6 °F 28.0 °F 26.6 °F 70% 29.83 in 6.2 mi ENE 10.4 mph - N/A Snow Light Snow
6:30 PM 35.6 °F 27.5 °F 28.4 °F 75% 29.83 in 5.0 mi ENE 11.5 mph - N/A Snow Light Snow
7:00 PM 35.6 °F 27.1 °F 28.4 °F 75% 29.83 in 5.0 mi ENE 12.7 mph - N/A Snow Light Snow
7:30 PM 35.6 °F 27.5 °F 28.4 °F 75% 29.83 in 5.0 mi ENE 11.5 mph - N/A Rain Light Rain
8:00 PM 35.6 °F 26.6 °F 30.2 °F 81% 29.83 in 5.0 mi ENE 13.8 mph - N/A Rain Light Rain
8:30 PM 35.6 °F 26.6 °F 30.2 °F 81% 29.83 in 5.0 mi East 13.8 mph - N/A Rain Light Rain
9:00 PM 35.6 °F 25.9 °F 30.2 °F 81% 29.83 in 6.2 mi East 16.1 mph - N/A   Overcast
9:30 PM 37.4 °F 28.9 °F 30.2 °F 75% 29.83 in 6.2 mi East 13.8 mph - N/A Rain Light Rain
10:00 PM 35.6 °F 26.2 °F 30.2 °F 81% 29.86 in 6.2 mi East 15.0 mph - N/A Rain Light Rain
10:30 PM 35.6 °F 26.6 °F 32.0 °F 87% 29.86 in 6.2 mi East 13.8 mph - N/A Rain Light Rain
11:00 PM 35.6 °F 26.6 °F 32.0 °F 87% 29.86 in 5.0 mi East 13.8 mph - N/A Rain Light Rain
11:30 PM 35.6 °F 27.1 °F 32.0 °F 87% 29.86 in 5.0 mi East 12.7 mph - N/A Rain Light Rain